Location: Newark
(35.2672°N, 80.7344°W)
Time: 01:51:25
(UTC+00:00)

A-11 Canister half - Pass Details

Date: 24 January 2020
Orbit: 1524 x 1684 km, 47.3° (Epoch: 21 February)

Event Time Altitude Azimuth Distance (km) Brightness Sun altitude
Rises 03:01:29 0° 294° (WNW) 4,726 12.1 -52.7°
Reaches altitude 10° 03:04:47 10° 301° (WNW) 3,761 11.4 -53.4°
Enters shadow 03:08:19 24° 315° (NW) 2,839 10.6 -54.1°
